Weather reports worldwide

Advertisment
Guernsey, United Kingdom (3894): temperature & dewpoint: 15.11.2017 13:00:00 - 21.11.2017 13:00:00 (GMT)Guernsey, United Kingdom (3894): wind speed & gusts: 15.11.2017 13:00:00 - 21.11.2017 13:00:00 (GMT)Guernsey, United Kingdom (3894): wind direction: 15.11.2017 13:00:00 - 21.11.2017 13:00:00 (GMT)Guernsey, United Kingdom (3894): reduced air pressure: 15.11.2017 13:00:00 - 21.11.2017 13:00:00 (GMT)Guernsey, United Kingdom (3894): visibility: 15.11.2017 13:00:00 - 21.11.2017 13:00:00 (GMT)Guernsey, United Kingdom (3894): precipitation: 15.11.2017 13:00:00 - 21.11.2017 13:00:00 (GMT)
Date & Time tt [°C] td [°C] ff [km/h] ff [kn] fx [km/h] fx [kn] dd ppp [hPa] vv [km] rr [mm]
21.11.2017 13:00:00 13,3 10,9 26 14 - - SSW 1013,7 10 -
21.11.2017 12:00:00 13,3 10,6 24 13 - - SSW 1014,3 10 0,0
21.11.2017 11:00:00 13,2 10,2 28 15 - - SW 1015,1 10 -
21.11.2017 10:00:00 12,9 9,5 29 16 - - WSW 1015,4 10 -
21.11.2017 09:00:00 12,7 9,2 29 16 - - WSW 1015,4 10 -
21.11.2017 08:00:00 12,4 8,9 28 15 - - WSW 1015,1 10 -
21.11.2017 07:00:00 12,7 9,0 29 16 - - WSW 1014,9 10 -
21.11.2017 06:00:00 12,8 9,2 26 14 - - SW 1015,0 10 0,0
21.11.2017 05:00:00 12,8 9,5 22 12 - - SW 1015,6 10 -
21.11.2017 04:00:00 12,8 9,2 26 14 - - SW 1015,7 10 -
21.11.2017 03:00:00 12,8 9,6 24 13 - - SW 1016,1 30 -
21.11.2017 02:00:00 12,5 10,6 24 13 - - SW 1016,7 25 -
21.11.2017 01:00:00 12,3 10,6 26 14 - - SW 1017,0 30 -
21.11.2017 00:00:00 12,3 10,6 26 14 - - SW 1017,4 30 0,0
20.11.2017 23:00:00 12,2 10,8 28 15 - - SW 1017,7 30 -
20.11.2017 22:00:00 12,2 10,8 31 17 - - SW 1017,7 30 -
20.11.2017 21:00:00 12,3 10,5 29 16 - - SW 1018,3 10 -
20.11.2017 20:00:00 12,6 9,8 29 16 - - SW 1018,5 10 -
20.11.2017 19:00:00 12,6 9,8 31 17 46 25 WSW 1018,5 10 -
20.11.2017 18:00:00 12,7 9,8 29 16 - - WSW 1018,3 10 0,0
20.11.2017 17:00:00 12,7 9,8 31 17 52 28 WSW 1018,5 10 -
20.11.2017 16:00:00 12,6 9,8 37 20 54 29 WSW 1018,5 10 -
20.11.2017 15:00:00 12,8 9,9 39 21 57 31 WSW 1018,5 10 -
20.11.2017 14:00:00 12,9 10,6 37 20 - - WSW 1018,9 10 -
20.11.2017 13:00:00 12,7 10,1 35 19 52 28 WSW 1019,6 10 -
20.11.2017 12:00:00 12,6 10,2 34 18 48 26 WSW 1020,1 10 0,0
20.11.2017 11:00:00 12,5 10,0 31 17 - - SW 1020,8 10 -
20.11.2017 10:00:00 12,1 9,7 28 15 46 25 SW 1021,0 10 -
20.11.2017 09:00:00 11,9 9,7 31 17 48 26 WSW 1021,3 10 -
20.11.2017 08:00:00 11,8 8,1 31 17 - - WSW 1021,0 10 -
20.11.2017 07:00:00 11,6 7,4 29 16 - - WSW 1021,2 10 -
20.11.2017 06:00:00 11,4 7,4 28 15 - - WSW 1021,4 10 -
20.11.2017 05:00:00 11,1 7,4 28 15 - - WSW 1021,6 10 -
20.11.2017 04:00:00 11,4 8,1 24 13 - - WSW 1021,8 10 -
20.11.2017 03:00:00 11,6 8,3 22 12 - - WSW 1022,6 35 -
20.11.2017 02:00:00 11,5 8,6 22 12 - - WSW 1022,5 30 -
20.11.2017 01:00:00 10,8 9,3 16 9 - - WSW 1023,0 30 -
20.11.2017 00:00:00 11,5 10,2 16 9 - - WSW 1023,8 20 -
19.11.2017 23:00:00 11,1 10,6 9 5 - - SW 1024,1 20 -
19.11.2017 22:00:00 11,5 10,6 15 8 - - SSW 1024,6 8 -
19.11.2017 21:00:00 11,3 9,6 15 8 - - S 1024,7 10 -
19.11.2017 20:00:00 11,0 8,6 13 7 - - S 1024,7 10 -
19.11.2017 19:00:00 10,7 8,3 9 5 - - S 1024,8 10 -
19.11.2017 18:00:00 10,6 8,3 4 2 - - SSE 1025,0 10 -
19.11.2017 17:00:00 10,4 8,1 4 2 - - SSE 1024,9 10 -
19.11.2017 16:00:00 10,8 8,1 2 1 - - S 1024,9 10 -
19.11.2017 15:00:00 11,0 7,9 4 2 - - ESE 1024,6 10 -
19.11.2017 14:00:00 11,3 7,7 2 1 - - - 1024,8 10 -
19.11.2017 13:00:00 11,5 7,7 2 1 - - - 1025,1 10 -
19.11.2017 12:00:00 11,1 7,4 2 1 - - ENE 1025,3 10 -
19.11.2017 11:00:00 10,9 7,8 5 3 - - - 1025,3 10 -
19.11.2017 10:00:00 10,4 8,2 5 3 - - NNE 1025,1 10 -
19.11.2017 09:00:00 9,9 8,4 5 3 - - NE 1024,7 10 -
19.11.2017 08:00:00 9,5 8,6 8 4 - - NNE 1024,2 10 -
19.11.2017 07:00:00 9,8 9,6 9 5 - - NNE 1023,7 9 -
19.11.2017 06:00:00 10,6 10,3 9 5 - - NNE 1023,2 3,5 -
19.11.2017 05:00:00 11,6 10,8 11 6 - - N 1022,7 7 -
19.11.2017 04:00:00 12,5 11,0 24 13 - - WNW 1022,5 10 -
19.11.2017 03:00:00 12,4 10,8 22 12 - - WNW 1022,8 22 -
19.11.2017 02:00:00 12,2 11,0 21 11 - - WNW 1022,8 30 -
19.11.2017 01:00:00 12,0 10,7 24 13 - - WNW 1023,1 40 -
19.11.2017 00:00:00 12,2 10,4 24 13 - - W 1023,3 45 -
18.11.2017 23:00:00 12,0 10,0 22 12 - - W 1023,6 50 -
18.11.2017 22:00:00 11,9 9,4 24 13 - - W 1023,9 50 -
18.11.2017 21:00:00 11,6 8,9 24 13 - - W 1024,2 10 -
18.11.2017 20:00:00 11,3 8,6 22 12 - - W 1024,1 10 -
18.11.2017 19:00:00 11,3 8,5 24 13 - - W 1024,3 10 -
18.11.2017 18:00:00 10,9 7,5 22 12 - - W 1024,6 10 0,0
18.11.2017 17:00:00 10,8 6,6 22 12 - - W 1025,0 10 -
18.11.2017 16:00:00 10,8 7,3 24 13 - - W 1024,9 10 -
18.11.2017 15:00:00 10,9 6,8 22 12 - - W 1025,1 10 -
18.11.2017 14:00:00 11,2 7,7 21 11 - - W 1025,5 10 -
18.11.2017 13:00:00 11,3 7,3 21 11 - - WSW 1026,0 10 -
18.11.2017 12:00:00 11,4 5,5 16 9 - - WSW 1026,7 10 0,0
18.11.2017 11:00:00 10,4 5,0 11 6 - - WSW 1027,3 10 -
18.11.2017 10:00:00 10,1 6,1 5 3 - - WSW 1027,1 10 -
18.11.2017 09:00:00 8,8 4,1 0 0 - - N 1027,5 10 -
18.11.2017 08:00:00 7,1 3,3 4 2 - - W 1027,2 10 -
18.11.2017 07:00:00 6,5 2,8 4 2 - - W 1027,0 10 -
18.11.2017 06:00:00 6,5 2,6 5 3 - - N 1027,1 10 0,0
18.11.2017 05:00:00 6,5 2,6 0 0 - - N 1027,4 10 -
18.11.2017 04:00:00 6,0 1,9 0 0 - - N 1027,3 10 -
18.11.2017 03:00:00 6,7 2,0 4 2 - - NNW 1028,0 50 -
18.11.2017 02:00:00 6,5 3,6 5 3 - - NNW 1028,2 50 -
18.11.2017 01:00:00 6,9 4,1 4 2 - - N 1028,5 50 -
18.11.2017 00:00:00 6,3 4,1 0 0 - - N 1028,3 50 0,0
17.11.2017 23:00:00 6,0 4,1 4 2 - - NW 1028,6 50 -
17.11.2017 22:00:00 7,0 4,2 5 3 - - N 1028,7 50 -
17.11.2017 21:00:00 7,2 4,5 5 3 - - NE 1028,6 10 -
17.11.2017 20:00:00 7,9 4,8 5 3 - - NNE 1029,1 10 -
17.11.2017 19:00:00 7,7 5,1 5 3 - - NNE 1029,1 10 -
17.11.2017 18:00:00 8,2 5,3 8 4 - - NNE 1028,8 10 0,0
17.11.2017 17:00:00 8,1 5,5 5 3 - - N 1028,5 10 -
17.11.2017 16:00:00 9,6 6,0 8 4 - - NE 1028,0 10 -
17.11.2017 15:00:00 10,7 6,2 13 7 - - NNE 1028,1 10 -
17.11.2017 14:00:00 11,0 6,7 13 7 - - NNE 1028,7 10 -
17.11.2017 13:00:00 11,5 6,4 9 5 - - NNE 1028,9 10 -
17.11.2017 12:00:00 11,4 7,4 11 6 - - ENE 1029,0 10 0,0
17.11.2017 11:00:00 11,7 8,0 15 8 - - ENE 1029,0 10 -
17.11.2017 10:00:00 10,7 8,1 13 7 - - ENE 1028,8 10 -
17.11.2017 09:00:00 10,5 7,8 15 8 - - ENE 1028,8 10 -
17.11.2017 08:00:00 10,4 8,3 13 7 - - NE 1028,5 10 -
17.11.2017 07:00:00 10,3 8,2 13 7 - - NE 1028,3 10 -
17.11.2017 06:00:00 10,2 8,4 16 9 - - NE 1027,7 10 -
17.11.2017 05:00:00 10,2 8,7 15 8 - - NE 1027,9 10 -
17.11.2017 04:00:00 10,1 9,1 16 9 - - NE 1027,8 10 -
17.11.2017 03:00:00 10,0 9,2 16 9 - - NE 1027,6 6 -
17.11.2017 02:00:00 10,9 10,2 13 7 - - NNE 1027,2 8 -
17.11.2017 01:00:00 11,3 10,4 9 5 - - NNE 1026,9 15 -
17.11.2017 00:00:00 11,3 10,1 8 4 - - N 1026,9 20 -
16.11.2017 23:00:00 9,9 8,0 4 2 - - ENE 1026,7 50 -
16.11.2017 22:00:00 10,9 8,7 5 3 - - N 1026,3 55 -
16.11.2017 21:00:00 11,0 9,1 8 4 - - N 1026,2 10 -
16.11.2017 20:00:00 10,8 8,7 5 3 - - N 1025,9 10 -
16.11.2017 19:00:00 10,6 8,3 5 3 - - NNW 1025,7 10 -
16.11.2017 18:00:00 10,5 8,0 5 3 - - NW 1025,4 10 0,0
16.11.2017 17:00:00 10,9 8,0 8 4 - - NW 1024,9 10 -
16.11.2017 16:00:00 11,6 7,4 9 5 - - NW 1024,5 10 -
16.11.2017 15:00:00 12,4 7,6 11 6 - - WNW 1024,2 10 -
16.11.2017 14:00:00 13,3 8,9 9 5 - - WNW 1023,8 10 -
16.11.2017 13:00:00 12,4 9,3 15 8 - - SW 1023,9 10 -
16.11.2017 12:00:00 12,0 8,9 11 6 - - SW 1024,1 10 0,0
16.11.2017 11:00:00 11,6 8,6 11 6 - - SSW 1024,5 10 -
16.11.2017 10:00:00 11,2 8,3 13 7 - - SSW 1024,1 10 -
16.11.2017 09:00:00 10,6 7,4 11 6 - - SW 1024,3 10 -
16.11.2017 08:00:00 10,2 7,0 11 6 - - SSW 1023,8 10 -
16.11.2017 07:00:00 10,4 6,7 16 9 - - SSW 1023,3 10 -
16.11.2017 06:00:00 10,6 7,1 15 8 - - SSW 1023,0 10 -
16.11.2017 05:00:00 10,6 7,4 13 7 - - SSW 1022,7 10 -
16.11.2017 04:00:00 10,4 7,2 11 6 - - S 1023,0 10 -
16.11.2017 03:00:00 10,2 7,3 11 6 - - SSW 1023,6 50 -
16.11.2017 02:00:00 10,4 6,9 13 7 - - S 1023,6 55 -
16.11.2017 01:00:00 10,6 6,8 13 7 - - S 1023,9 55 -
16.11.2017 00:00:00 11,0 7,1 11 6 - - SSW 1024,5 55 -
15.11.2017 23:00:00 11,0 7,2 13 7 - - SSW 1024,4 50 -
15.11.2017 22:00:00 11,0 7,6 9 5 - - S 1024,5 50 -
15.11.2017 21:00:00 11,0 7,5 13 7 - - S 1024,3 10 -
15.11.2017 20:00:00 11,0 8,5 9 5 - - S 1024,5 10 -
15.11.2017 19:00:00 10,7 9,2 8 4 - - S 1024,6 10 -
15.11.2017 18:00:00 11,2 9,5 4 2 - - - 1024,9 10 -
15.11.2017 17:00:00 11,3 9,7 2 1 - - WSW 1024,7 10 -
15.11.2017 16:00:00 12,0 9,7 5 3 - - WSW 1024,9 10 -
15.11.2017 15:00:00 12,4 10,0 9 5 - - SW 1025,2 10 -
15.11.2017 14:00:00 12,8 10,2 15 8 - - WSW 1025,2 10 -
15.11.2017 13:00:00 12,7 10,3 15 8 - - W 1025,3 10 -

tt = temperature
td = dewpoint
ff = wind speed
fx = gusts
dd = wind direction
ppp = reduced air pressure
vv = visibility
rr = precipitation

Next stations